User: anonymous   Login
Location: Unspecified
(0.0000°N, 0.0000°E)
Time: 01:56:18
(UTC+00:00)
Language:

AAUSAT3 - Orbit

View from above orbital plane
View from above orbital plane
View from above satellite
View from above satellite

Ground track
Ground track

The orbit data is extracted from the following two-line orbital elements,

1 39087U 13009B   17147.80705919 +.00000169 +00000-0 +74036-4 0  9999
2 39087 098.5550 353.2437 0012803 007.7803 352.3584 14.35500971222592
Epoch (UTC): 27 May 2017 19:22:09
Eccentricity: 0.0012803
inclination: 98.5550°
perigee height: 764 km
apogee height: 782 km
right ascension of ascending node: 353.2437°
argument of perigee: 7.7803°
revolutions per day: 14.35500971
mean anomaly at epoch: 352.3584°
orbit number at epoch: 22259

The dashed part of the orbit path shows where the satellite is in the earth's shadow,  

DLR